Página principal
METAR-TAF:

METAR-TAF

Aeroportos :

Sault Ste. Marie Municipal Airport (Sanderson Field)

Sault Ste. Marie, Michigan, Estados Unidos

latitude: 46-28-46N, longitude: 084-21-26W, altura: 210 m

Observação actual do tempo

O boletim foi feito há 21 horas e 25 minutos, às 23:55 UTC
Vento 3 kt de nordeste
Temperatura 21°C
Humidade 88%
Pressão 1015 hPa
Visibilidade: 8.0 km
Nuvens dispersasa uma altura de 4600 ft
Nuvens fragmentadasa uma altura de 6000 ft
neblina

METAR: KANJ 202355Z AUTO 05003KT 5SM BR SCT046 BKN060 21/19 A2998 RMK AO2 SLP150 60003 T02110194 10267 20206 58002

Hora: 17:20 (21:20 UTC)


TAF: em falta

Observações e previsões do tempo de mais de 4000 aeroportos (mensagens METAR e TAF).

As estações disponíveis são os pontos amarelos e vermelhos sobre o mapa.

Mova o rato sobre o mapa para ver o nome da estação.

Depois clique no ponto para visualizar as observações e previsões meteorológicas.

Para alterar o mapa : clique nos botões verdes com uma cruz preta para aumentar o zoom; no botão verde com uma pitada de zoom; ou nas setas verdes para mapas adjacentes.


METAR-TAF: